sim
Sign-in with your pilot id or email,
or register
Callsign
Passwort

Schedule Details

Flight Number: RYR4081
Departure: Liverpool John Lennon Airport (EGGP) at 14:35
Arrival: Fuerteventura Airport (GCFV) at 18:55
Route: Ryanair Passenger Schedule. Enter filed route here before submitting Pirep.

Weather Information
Getting current METAR information for EGGP 211820Z 19009KT 9999 VCSH FEW028 SCT040 17/15 Q1022
Getting current METAR information for GCFV 211830Z 01019KT CAVOK 26/18 Q1013

Schedule Frequency

Route Map